Regional Weather Roundup
Issued by NWS Albany, NY

Home | Current Version | Previous Version | Text Only | Print | Product List | Glossary On
Versions: 1 2 3 4 5 6 7 8 9 10 11 12 13 14 15 16 17 18 19 20 21 22 23 24 25 26 27 28 29 30 31 32 33 34 35 36 37 38 39 40 41 42 43 44 45 46 47 48 49 50
000
ASUS41 KALY 251410
RWRALY

NEW YORK STATE HOURLY WEATHER ROUNDUP
NATIONAL WEATHER SERVICE ALBANY NY
1000 AM EDT MON MAY 25 2015

NOTE: "FAIR" INDICATES FEW OR NO CLOUDS BELOW 12,000 FEET WITH NO
SIGNIFICANT WEATHER AND/OR NO OBSTRUCTIONS TO VISIBILITY.

NYZ032-033-038>043-046>054-057>066-NYZ062>081-251500-
EAST


CITY           SKY/WX    TMP DP  RH WIND       PRES   REMARKS
ALBANY         CLOUDY    66  49  54 S5        30.23F
GLENS FALLS    CLOUDY    62  51  67 SW3       30.23F
POUGHKEEPSIE   CLOUDY    72  57  59 VRB3      30.24S
NEWBURGH       MOSUNNY   70  59  68 CALM      30.27
MONTGOMERY     MOSUNNY   73  60  63 S6        30.24F
WHITE PLAINS   PTSUNNY   70  58  65 S3        30.27S
ISLIP          PTSUNNY   68  56  65 SW8       30.27S
NEW YORK CITY  PTSUNNY   73  56  54 SW9       30.27S
CENTRAL PARK   PTSUNNY   72  56  57 CALM      30.29F
$$

NYZ005>009-017-018-044>046-055-056-251500-
CENTRAL


CITY           SKY/WX    TMP DP  RH WIND       PRES   REMARKS
FULTON         CLOUDY    66  53  63 VRB3      30.16F
SYRACUSE       CLOUDY    67  56  67 E6        30.17F
ROME           CLOUDY    66  52  60 E5        30.22S
ELMIRA         CLOUDY    70  54  56 CALM      30.19F
BINGHAMTON     CLOUDY    69  54  58 SW8       30.22F
MONTICELLO     PTSUNNY   70  57  64 W6        30.27F
$$

NYZ026>034-041>043-251500-
NORTH


CITY           SKY/WX    TMP DP  RH WIND       PRES   REMARKS
WATERTOWN      CLOUDY    64  58  80 E3        30.15F
FORT DRUM      NOT AVBL
MASSENA        LGT RAIN  65  55  70 SW13      30.17S
SARANAC LAKE   CLOUDY    62  51  67 SW10      30.21S
PLATTSBURGH    LGT RAIN  60  49  66 SE7       30.17R
$$

NYZ001>004-010>016-019>021-251500-
WEST


CITY           SKY/WX    TMP DP  RH WIND       PRES   REMARKS
NIAGARA FALLS  PTSUNNY   72  52  49 S10       30.09F
BUFFALO        CLOUDY    75  52  44 S10       30.10F
DUNKIRK        MOSUNNY   75  54  47 S16G26    30.11F
JAMESTOWN      SUNNY     70  54  56 S7        30.18F
WELLSVILLE     MOSUNNY   72  52  49 SW10G16   30.22F
ROCHESTER      CLOUDY    71  53  52 S7        30.13F
PENN YAN       CLOUDY    70  52  52 S9        30.17F
$$

             KEY
       WCI = WIND CHILL INDEX
       VSB = VISIBILITY
       HX  = HEAT INDEX
$$



USA.gov is the U.S. government's official web portal to all federal, state and local government web resources and services.